Weather History for Kansas City International, MO

Change the Weather History Date:

Wednesday, June 12, 2013

  Actual Average Record
Temperature  
Mean Temperature 81 °F 73 °F  
Max Temperature 93 °F 83 °F 100 °F (1953)
Min Temperature 68 °F 63 °F 50 °F (1985)
Degree Days  
Heating Degree Days 0 0  
Month to date heating degree days 17 7  
Since 1 June heating degree days 17 7  
Since 1 July heating degree days 5202 5131  
Cooling Degree Days 16 8  
Month to date cooling degree days 50 80  
Year to date cooling degree days 155 196  
Since 1 June cooling degree days 50 80  
Growing Degree Days 34 (Base 50)    
Moisture  
Dew Point 67 °F    
Average Humidity 58    
Maximum Humidity 74    
Minimum Humidity 41    
Precipitation  
Precipitation 0.00 in 0.17 in 3.06 in (1966)
Month to date precipitation 1.56 2.13  
Year to date precipitation 16.49 15.96  
Snow  
Snow 0.00 in 0.00 in 0.00 in ()
Month to date snowfall 0.0 0.0  
Since 1 June snowfall 0.0 0.0  
Since 1 July snowfall 31.8 18.8  
Snow Depth 0.00 in    
Sea Level Pressure  
Sea Level Pressure 29.77 in    
Wind  
Wind Speed 16 mph (WSW)    
Max Wind Speed 26 mph    
Max Gust Speed 36 mph    
Visibility 10 miles    
Events      
T = Trace of Precipitation, MM = Missing Value Source: NWS Daily Summary

Daily Weather History Graph

Daily Weather History Graph

Search for Another Location

Airport:

Trip Planner

Search our weather history database for the weather conditions in past years. The results will help you decide how hot, cold, wet, or windy it might be!

Date:

Astronomy

Jun. 12, 2013 Rise Set
Actual Time 5:51 AM CDT 8:46 PM CDT
Civil Twilight 5:19 AM CDT 9:18 PM CDT
Nautical Twilight 4:38 AM CDT 9:59 PM CDT
Astronomical Twilight 3:52 AM CDT 10:46 PM CDT
Moon 9:30 AM CDT (6/12) 11:23 PM CDT (6/12)
Length of Visible Light 15h 58m
Length of Day
14h 54m
Waxing Crescent, 14% of the Moon is Illuminated
Jun 12
Waxing Crescent
Jun 16
First Quarter
Jun 23
Full
Jun 29
Last Quarter
Jul 8
New

Hourly Weather History & Observations

Time (CDT) Temp. Heat Index Dew Point Humidity Pressure Visibility Wind Dir Wind Speed Gust Speed Precip Events Conditions
12:53 AM 80.1 °F 82.7 °F 68.0 °F 67% 29.79 in 9.0 mi South 16.1 mph 24.2 mph N/A   Partly Cloudy
1:53 AM 79.0 °F - 69.1 °F 72% 29.77 in 10.0 mi South 16.1 mph 24.2 mph N/A   Partly Cloudy
2:53 AM 78.1 °F - 68.0 °F 71% 29.76 in 10.0 mi SSW 18.4 mph 25.3 mph N/A   Scattered Clouds
3:53 AM 77.0 °F - 68.0 °F 74% 29.76 in 10.0 mi SSW 17.3 mph - N/A   Partly Cloudy
4:53 AM 77.0 °F - 68.0 °F 74% 29.77 in 10.0 mi SSW 15.0 mph 25.3 mph N/A   Partly Cloudy
5:53 AM 75.9 °F - 66.9 °F 74% 29.76 in 10.0 mi South 18.4 mph - N/A   Partly Cloudy
6:53 AM 77.0 °F - 66.9 °F 71% 29.75 in 10.0 mi SSW 20.7 mph 27.6 mph N/A   Partly Cloudy
7:53 AM 79.0 °F - 66.9 °F 66% 29.73 in 10.0 mi SSW 21.9 mph 28.8 mph N/A   Scattered Clouds
8:53 AM 82.0 °F 84.9 °F 68.0 °F 62% 29.73 in 10.0 mi SSW 17.3 mph 28.8 mph N/A   Scattered Clouds
9:53 AM 84.9 °F 88.2 °F 68.0 °F 57% 29.73 in 10.0 mi SW 25.3 mph 32.2 mph N/A   Partly Cloudy
10:53 AM 86.0 °F 90.1 °F 69.1 °F 57% 29.74 in 10.0 mi SSW 18.4 mph 28.8 mph N/A   Partly Cloudy
11:53 AM 88.0 °F 90.7 °F 66.9 °F 49% 29.75 in 10.0 mi SW 20.7 mph 31.1 mph N/A   Partly Cloudy
12:53 PM 89.1 °F 93.7 °F 69.1 °F 52% 29.75 in 10.0 mi SW 20.7 mph 27.6 mph N/A   Scattered Clouds
1:53 PM 89.1 °F 92.9 °F 68.0 °F 50% 29.75 in 10.0 mi West 16.1 mph 23.0 mph N/A   Partly Cloudy
2:53 PM 90.0 °F 93.6 °F 68.0 °F 48% 29.75 in 10.0 mi WSW 16.1 mph 23.0 mph N/A   Partly Cloudy
3:53 PM 91.9 °F 97.4 °F 70.0 °F 48% 29.76 in 10.0 mi WSW 13.8 mph - N/A   Partly Cloudy
4:53 PM 91.9 °F 95.9 °F 68.0 °F 45% 29.76 in 10.0 mi West 11.5 mph - N/A   Partly Cloudy
5:53 PM 93.0 °F 96.4 °F 66.9 °F 42% 29.76 in 10.0 mi West 6.9 mph 17.3 mph N/A   Partly Cloudy
6:53 PM 91.0 °F 94.3 °F 66.9 °F 45% 29.77 in 10.0 mi WNW 6.9 mph - N/A   Partly Cloudy
7:53 PM 88.0 °F 92.1 °F 69.1 °F 53% 29.78 in 10.0 mi WNW 10.4 mph - N/A   Scattered Clouds
8:53 PM 82.9 °F 85.4 °F 66.9 °F 58% 29.81 in 10.0 mi NNW 11.5 mph - N/A   Partly Cloudy
9:53 PM 81.0 °F 81.9 °F 62.1 °F 52% 29.85 in 10.0 mi NNW 20.7 mph 25.3 mph N/A   Clear
10:53 PM 77.0 °F - 61.0 °F 58% 29.88 in 10.0 mi NNW 11.5 mph - N/A   Clear
11:53 PM 71.1 °F - 55.9 °F 59% 29.92 in 10.0 mi NNW 16.1 mph 28.8 mph N/A   Partly Cloudy